Date String (YYYY-MM-DD hh:mm:ss) UTC,Instrument flags,Ambient pressure (hPa),Sample flow (lpm),Bypass flow (lpm),Sample temperature (°C),Ambient temperature (°C),ASC tube jacket temperature (°C),LED temperature (°C),Box temperature (°C),Sample RH (%),Span deviation,Mass concentration (μg/m³),Mass concentration (μg/m³),Mass concentration (μg/m³)
DateTimeUTC,F1_M11,P_M11,Q1_M11,Q2_M11,T1_M11,T2_M11,T3_M11,T4_M11,T5_M11,U1_M11,ZSPAN_M11,X0_M11,X2_M11,X1_M11
2022-08-10 21:00:00,,0832.8,4.99,0.00,29.3,27.6,00.0,38.0,31.1,19.2,0000.0,0012.40,0004.61,0003.69
2022-08-10 21:01:00,,0832.8,5.01,0.00,29.3,27.3,00.0,38.0,31.1,19.4,0000.0,0012.39,0004.64,0003.70
2022-08-10 21:02:00,,0832.8,4.99,0.00,29.3,27.3,00.0,38.0,31.1,19.0,0000.0,0013.01,0004.69,0003.72
2022-08-10 21:03:00,,0832.8,5.01,0.00,29.2,27.4,00.0,38.0,31.0,18.4,0000.0,0012.43,0004.70,0003.73
2022-08-10 21:04:00,,0832.8,5.00,0.00,29.2,27.6,00.0,38.0,31.1,18.8,0000.0,0012.09,0004.70,0003.74
2022-08-10 21:05:00,,0832.8,5.00,0.00,29.3,27.8,00.0,38.0,31.1,18.8,0000.0,0011.44,0004.67,0003.75
2022-08-10 21:06:00,,0832.9,5.00,0.00,29.3,28.0,00.0,38.0,31.3,19.9,0000.0,0011.65,0004.69,0003.78
2022-08-10 21:07:00,,0832.8,5.00,0.00,29.4,28.2,00.0,38.0,31.3,19.4,0000.0,0011.10,0004.70,0003.81
2022-08-10 21:08:00,,0832.8,4.99,0.00,29.4,28.2,00.0,38.0,31.4,18.4,0000.0,0011.06,0004.74,0003.82
2022-08-10 21:09:00,,0832.8,5.01,0.00,29.4,27.6,00.0,38.0,31.2,19.7,0000.0,0011.43,0004.78,0003.83
2022-08-10 21:10:00,,0832.8,4.99,0.00,29.3,27.3,00.0,38.0,31.1,20.1,0000.0,0011.59,0004.80,0003.87
2022-08-10 21:11:00,,0832.8,5.01,0.00,29.3,27.3,00.0,38.0,31.1,20.4,0000.0,0011.20,0004.84,0003.89
2022-08-10 21:12:00,,0832.7,5.01,0.00,29.3,27.4,00.0,38.0,31.0,19.8,0000.0,0010.66,0004.84,0003.90
2022-08-10 21:13:00,,0832.8,4.99,0.00,29.3,27.6,00.0,38.0,31.1,19.5,0000.0,0009.91,0004.83,0003.92
2022-08-10 21:14:00,,0832.7,5.00,0.00,29.3,27.8,00.0,38.0,31.2,20.2,0000.0,0009.84,0004.86,0003.95
2022-08-10 21:15:00,,0832.7,5.01,0.00,29.3,28.1,00.0,38.0,31.3,19.8,0000.0,0010.10,0004.91,0003.99
2022-08-10 21:16:00,,0832.7,5.01,0.00,29.4,28.1,00.0,38.0,31.3,19.2,0000.0,0011.14,0004.94,0004.03
2022-08-10 21:17:00,,0832.8,4.99,0.00,29.3,27.5,00.0,38.0,31.1,19.1,0000.0,0011.54,0004.96,0004.04
2022-08-10 21:18:00,,0832.8,5.01,0.00,29.3,27.1,00.0,38.0,31.1,19.3,0000.0,0011.62,0004.98,0004.06
2022-08-10 21:19:00,,0832.7,4.99,0.00,29.3,27.2,00.0,38.0,31.1,19.5,0000.0,0012.05,0005.07,0004.08
2022-08-10 21:20:00,,0832.7,4.99,0.00,29.2,27.3,00.0,38.0,31.0,19.6,0000.0,0012.28,0005.07,0004.11
2022-08-10 21:21:00,,0832.7,5.00,0.00,29.2,27.5,00.0,38.0,31.0,18.8,0000.0,0012.19,0005.05,0004.11
2022-08-10 21:22:00,,0832.8,4.99,0.00,29.2,27.7,00.0,38.0,31.1,17.9,0000.0,0012.20,0005.03,0004.11
2022-08-10 21:23:00,,0832.7,5.01,0.00,29.3,27.9,00.0,38.0,31.2,18.2,0000.0,0012.28,0005.04,0004.10
2022-08-10 21:24:00,,0832.7,5.00,0.00,29.3,28.1,00.0,38.0,31.3,18.6,0000.0,0012.32,0005.02,0004.09
2022-08-10 21:25:00,,0832.7,4.99,0.00,29.4,28.3,00.0,38.0,31.4,18.5,0000.0,0012.47,0005.04,0004.08
2022-08-10 21:26:00,,0832.7,5.01,0.00,29.4,28.0,00.0,38.0,31.3,18.9,0000.0,0012.38,0005.06,0004.06
2022-08-10 21:27:00,,0832.6,5.01,0.00,29.4,27.4,00.0,38.0,31.2,19.2,0000.0,0011.32,0005.08,0004.05
2022-08-10 21:28:00,,0832.6,5.00,0.00,29.3,27.3,00.0,38.0,31.1,19.3,0000.0,0010.74,0005.09,0004.04
2022-08-10 21:29:00,,0832.6,5.00,0.00,29.3,27.3,00.0,38.0,31.1,20.0,0000.0,0010.76,0005.08,0004.05
2022-08-10 21:30:00,,0832.6,5.01,0.00,29.3,27.5,00.0,38.0,31.0,20.4,0000.0,0010.24,0005.00,0004.05
2022-08-10 21:31:00,,0832.6,5.00,0.00,29.3,27.7,00.0,38.0,31.1,20.5,0000.0,0010.29,0005.00,0004.05
2022-08-10 21:32:00,,0832.6,4.99,0.00,29.3,27.9,00.0,38.0,31.2,20.5,0000.0,0010.60,0005.02,0004.06
2022-08-10 21:33:00,,0832.6,5.01,0.00,29.4,28.1,00.0,38.0,31.3,20.5,0000.0,0010.76,0005.00,0004.09
2022-08-10 21:34:00,,0832.6,5.00,0.00,29.4,28.2,00.0,38.1,31.3,20.7,0000.0,0011.33,0005.02,0004.10
2022-08-10 21:35:00,,0832.6,5.00,0.00,29.4,27.7,00.0,38.0,31.2,21.4,0000.0,0012.03,0005.10,0004.13
2022-08-10 21:36:00,,0832.6,5.01,0.00,29.3,27.2,00.0,38.0,31.1,21.4,0000.0,0013.21,0005.14,0004.15
2022-08-10 21:37:00,,0832.6,4.99,0.00,29.3,27.2,00.0,38.0,31.1,21.9,0000.0,0013.31,0005.12,0004.17
2022-08-10 21:38:00,,0832.6,5.01,0.00,29.3,27.4,00.0,38.0,31.0,21.5,0000.0,0013.73,0005.12,0004.19
2022-08-10 21:39:00,,0832.6,5.00,0.00,29.2,27.5,00.0,38.0,31.1,20.9,0000.0,0013.72,0005.13,0004.21
2022-08-10 21:40:00,,0832.6,5.00,0.00,29.3,27.8,00.0,38.0,31.1,20.1,0000.0,0013.71,0005.16,0004.22
2022-08-10 21:41:00,,0832.6,5.00,0.00,29.3,28.0,00.0,38.0,31.2,20.6,0000.0,0013.68,0005.16,0004.22
2022-08-10 21:42:00,,0832.6,4.99,0.00,29.4,28.2,00.0,38.0,31.3,20.8,0000.0,0013.25,0005.18,0004.22
2022-08-10 21:43:00,,0832.6,5.01,0.00,29.4,28.3,00.0,38.1,31.4,20.8,0000.0,0012.99,0005.19,0004.22
2022-08-10 21:44:00,,0832.6,5.00,0.00,29.4,27.8,00.0,38.0,31.3,20.4,0000.0,0012.96,0005.21,0004.22
2022-08-10 21:45:00,,0832.5,5.01,0.00,29.4,27.3,00.0,38.0,31.2,20.6,0000.0,0012.29,0005.24,0004.22
2022-08-10 21:46:00,,0832.5,5.00,0.00,29.3,27.3,00.0,38.0,31.2,20.8,0000.0,0012.15,0005.20,0004.21
2022-08-10 21:47:00,,0832.5,5.00,0.00,29.3,27.4,00.0,38.0,31.1,20.5,0000.0,0011.71,0005.24,0004.21
2022-08-10 21:48:00,,0832.4,5.00,0.00,29.3,27.6,00.0,38.0,31.1,21.2,0000.0,0011.58,0005.26,0004.21
2022-08-10 21:49:00,,0832.4,5.01,0.00,29.3,27.8,00.0,38.0,31.2,21.1,0000.0,0011.64,0005.24,0004.21
2022-08-10 21:50:00,,0832.4,5.01,0.00,29.3,28.0,00.0,38.0,31.3,21.2,0000.0,0012.05,0005.23,0004.21
2022-08-10 21:51:00,,0832.4,4.99,0.00,29.4,28.2,00.0,38.1,31.3,20.9,0000.0,0012.78,0005.24,0004.21
2022-08-10 21:52:00,,0832.4,5.02,0.00,29.4,28.0,00.0,38.1,31.3,20.7,0000.0,0012.98,0005.31,0004.22
2022-08-10 21:53:00,,0832.4,5.00,0.00,29.4,27.4,00.0,38.0,31.1,19.1,0000.0,0012.92,0005.29,0004.21
2022-08-10 21:54:00,,0832.3,5.01,0.00,29.3,27.2,00.0,38.0,31.1,19.2,0000.0,0013.15,0005.27,0004.18
2022-08-10 21:55:00,,0832.4,5.01,0.00,29.3,27.3,00.0,38.0,31.1,18.9,0000.0,0013.32,0005.27,0004.17
2022-08-10 21:56:00,,0832.3,5.00,0.00,29.3,27.5,00.0,38.0,31.0,19.2,0000.0,0014.44,0005.30,0004.17
2022-08-10 21:57:00,,0832.3,5.00,0.00,29.3,27.7,00.0,38.0,31.1,19.7,0000.0,0014.66,0005.28,0004.16
2022-08-10 21:58:00,,0832.3,5.00,0.00,29.3,27.9,00.0,38.0,31.2,18.9,0000.0,0014.24,0005.23,0004.13
2022-08-10 21:59:00,,0832.3,5.01,0.00,29.4,28.1,00.0,38.0,31.3,19.0,0000.0,0014.04,0005.20,0004.11
